Time,TemperatureF,DewpointF,PressureIn,WindDirection,WindDirectionDegrees,WindSpeedMPH,WindSpeedGustMPH,Humidity,HourlyPrecipIn,Conditions,Clouds,dailyrainin,SoftwareType,DateUTC
2013-07-27 00:33:00,62.0,59.0,30.00,North,0,0.0,-999.0,91,0.00,,,-99.99,,2013-07-27 07:33:00,
2013-07-27 00:43:00,62.0,59.0,30.00,North,0,0.0,-999.0,91,0.00,,,-99.99,,2013-07-27 07:43:00,
2013-07-27 00:52:00,62.0,59.0,30.00,North,0,0.0,-999.0,91,0.00,,,-99.99,,2013-07-27 07:52:00,
2013-07-27 01:32:00,62.0,58.0,29.99,North,0,0.0,-999.0,88,0.00,,,-99.99,,2013-07-27 08:32:00,
2013-07-27 01:43:00,62.0,58.0,29.99,North,0,0.0,-999.0,88,0.00,,,-99.99,,2013-07-27 08:43:00,
2013-07-27 01:53:00,62.0,58.0,29.99,North,0,0.0,-999.0,88,0.00,,,-99.99,,2013-07-27 08:53:00,
2013-07-27 02:44:00,63.0,59.0,29.99,North,0,0.0,-999.0,86,0.00,,,-99.99,,2013-07-27 09:44:00,
2013-07-27 02:52:00,63.0,59.0,29.99,North,0,0.0,-999.0,86,0.00,,,-99.99,,2013-07-27 09:52:00,
2013-07-27 03:32:00,63.0,59.0,29.98,North,0,0.0,-999.0,88,0.00,,,-99.99,,2013-07-27 10:32:00,
2013-07-27 03:43:00,63.0,59.0,29.98,North,0,0.0,-999.0,88,0.00,,,-99.99,,2013-07-27 10:43:00,
2013-07-27 03:52:00,63.0,59.0,29.98,North,0,0.0,-999.0,88,0.00,,,-99.99,,2013-07-27 10:52:00,
2013-07-27 04:32:00,61.0,58.0,29.98,North,0,0.0,-999.0,89,0.00,,,-99.99,,2013-07-27 11:32:00,
2013-07-27 04:43:00,61.0,58.0,29.98,North,0,0.0,-999.0,89,0.00,,,-99.99,,2013-07-27 11:43:00,
2013-07-27 04:52:00,61.0,58.0,29.98,North,0,0.0,-999.0,89,0.00,,,-99.99,,2013-07-27 11:52:00,
2013-07-27 05:33:00,61.0,59.0,29.98,North,0,0.0,-999.0,93,0.00,,,-99.99,,2013-07-27 12:33:00,
2013-07-27 05:43:00,61.0,59.0,29.98,North,0,0.0,-999.0,93,0.00,,,-99.99,,2013-07-27 12:43:00,
2013-07-27 05:52:00,61.0,59.0,29.98,North,0,0.0,-999.0,93,0.00,,,-99.99,,2013-07-27 12:52:00,
2013-07-27 06:44:00,61.0,59.0,29.99,North,0,0.0,-999.0,94,0.00,,,-99.99,,2013-07-27 13:44:00,
2013-07-27 06:53:00,61.0,59.0,29.99,North,0,0.0,-999.0,94,0.00,,,-99.99,,2013-07-27 13:53:00,
2013-07-27 06:54:00,61.0,59.0,29.98,North,0,0.0,-999.0,94,0.00,,,-99.99,,2013-07-27 13:54:00,
2013-07-27 07:44:00,61.0,59.0,29.98,North,0,0.0,-999.0,94,0.00,,,-99.99,,2013-07-27 14:44:00,
2013-07-27 08:33:00,61.0,59.0,29.99,North,0,0.0,-999.0,94,0.00,,,-99.99,,2013-07-27 15:33:00,
2013-07-27 08:44:00,61.0,59.0,29.99,North,0,0.0,-999.0,94,0.00,,,-99.99,,2013-07-27 15:44:00,
2013-07-27 08:53:00,61.0,59.0,29.99,North,0,0.0,-999.0,94,0.00,,,-99.99,,2013-07-27 15:53:00,
2013-07-27 09:43:00,61.0,59.0,29.99,West,270,1.0,-999.0,94,0.01,,,-99.99,,2013-07-27 16:43:00,
2013-07-27 09:53:00,61.0,59.0,29.99,West,270,1.0,-999.0,94,0.01,,,-99.99,,2013-07-27 16:53:00,
2013-07-27 10:32:00,62.0,61.0,29.98,West,270,2.0,-999.0,95,0.00,,,-99.99,,2013-07-27 17:32:00,
2013-07-27 10:43:00,62.0,61.0,29.98,West,270,2.0,-999.0,95,0.00,,,-99.99,,2013-07-27 17:43:00,
2013-07-27 10:53:00,62.0,61.0,29.98,West,270,2.0,-999.0,95,0.00,,,-99.99,,2013-07-27 17:53:00,
2013-07-27 11:42:00,65.0,62.0,29.98,West,280,2.0,-999.0,91,0.00,,,-99.99,,2013-07-27 18:42:00,
2013-07-27 11:52:00,65.0,62.0,29.98,West,280,2.0,-999.0,91,0.00,,,-99.99,,2013-07-27 18:52:00,
2013-07-27 12:32:00,66.0,62.0,29.97,West,270,5.0,-999.0,86,0.00,,,-99.99,,2013-07-27 19:32:00,
2013-07-27 12:43:00,66.0,62.0,29.97,West,270,5.0,-999.0,86,0.00,,,-99.99,,2013-07-27 19:43:00,
2013-07-27 12:52:00,66.0,62.0,29.97,West,270,5.0,-999.0,86,0.00,,,-99.99,,2013-07-27 19:52:00,
2013-07-27 13:32:00,69.0,63.0,29.95,West,280,5.0,-999.0,80,0.00,,,-99.99,,2013-07-27 20:32:00,
2013-07-27 13:42:00,69.0,63.0,29.95,West,280,5.0,-999.0,80,0.00,,,-99.99,,2013-07-27 20:42:00,
2013-07-27 13:52:00,69.0,63.0,29.95,West,280,5.0,-999.0,80,0.00,,,-99.99,,2013-07-27 20:52:00,
2013-07-27 14:33:00,69.0,63.0,29.93,West,260,4.0,-999.0,80,0.00,,,-99.99,,2013-07-27 21:33:00,
2013-07-27 14:42:00,69.0,63.0,29.93,West,260,4.0,-999.0,80,0.00,,,-99.99,,2013-07-27 21:42:00,
2013-07-27 14:52:00,69.0,63.0,29.93,West,260,4.0,-999.0,80,0.00,,,-99.99,,2013-07-27 21:52:00,
2013-07-27 15:32:00,68.0,62.0,29.92,West,260,4.0,-999.0,82,0.00,,,-99.99,,2013-07-27 22:32:00,
2013-07-27 15:43:00,68.0,62.0,29.92,West,260,4.0,-999.0,82,0.00,,,-99.99,,2013-07-27 22:43:00,
2013-07-27 15:53:00,68.0,62.0,29.92,West,260,4.0,-999.0,82,0.00,,,-99.99,,2013-07-27 22:53:00,
2013-07-27 16:32:00,65.0,61.0,29.90,WSW,250,5.0,-999.0,88,0.00,,,-99.99,,2013-07-27 23:32:00,
2013-07-27 16:44:00,65.0,61.0,29.90,WSW,250,5.0,-999.0,88,0.00,,,-99.99,,2013-07-27 23:44:00,
2013-07-27 16:52:00,65.0,61.0,29.90,WSW,250,5.0,-999.0,88,0.00,,,-99.99,,2013-07-27 23:52:00,
2013-07-27 17:32:00,64.0,61.0,29.90,West,280,3.0,-999.0,89,0.00,,,-99.99,,2013-07-28 00:32:00,
2013-07-27 17:44:00,64.0,61.0,29.90,West,280,3.0,-999.0,89,0.00,,,-99.99,,2013-07-28 00:44:00,
2013-07-27 17:53:00,64.0,61.0,29.90,West,280,3.0,-999.0,89,0.00,,,-99.99,,2013-07-28 00:53:00,
2013-07-27 18:32:00,67.0,61.0,29.88,West,280,5.0,-999.0,81,0.00,,,-99.99,,2013-07-28 01:32:00,
2013-07-27 18:43:00,67.0,61.0,29.88,West,280,5.0,-999.0,81,0.00,,,-99.99,,2013-07-28 01:43:00,
2013-07-27 18:53:00,67.0,61.0,29.88,West,280,5.0,-999.0,81,0.00,,,-99.99,,2013-07-28 01:53:00,
2013-07-27 19:32:00,62.0,59.0,29.88,West,270,2.0,-999.0,90,0.00,,,-99.99,,2013-07-28 02:32:00,
2013-07-27 19:42:00,62.0,59.0,29.88,West,270,2.0,-999.0,90,0.00,,,-99.99,,2013-07-28 02:42:00,
2013-07-27 19:53:00,62.0,59.0,29.88,West,270,2.0,-999.0,90,0.00,,,-99.99,,2013-07-28 02:53:00,
2013-07-27 20:32:00,60.0,58.0,29.89,West,260,3.0,-999.0,93,0.00,,,-99.99,,2013-07-28 03:32:00,
2013-07-27 20:42:00,60.0,58.0,29.89,West,260,3.0,-999.0,93,0.00,,,-99.99,,2013-07-28 03:42:00,
2013-07-27 20:52:00,60.0,58.0,29.89,West,260,3.0,-999.0,93,0.00,,,-99.99,,2013-07-28 03:52:00,
2013-07-27 21:43:00,60.0,58.0,29.90,West,270,4.0,-999.0,94,0.00,,,-99.99,,2013-07-28 04:43:00,
2013-07-27 21:53:00,60.0,58.0,29.90,West,270,4.0,-999.0,94,0.00,,,-99.99,,2013-07-28 04:53:00,
2013-07-27 22:43:00,60.0,58.0,29.91,West,280,1.0,-999.0,94,0.00,,,-99.99,,2013-07-28 05:43:00,
2013-07-27 22:52:00,60.0,58.0,29.91,West,280,1.0,-999.0,94,0.00,,,-99.99,,2013-07-28 05:52:00,
2013-07-27 23:32:00,60.0,58.0,29.91,North,0,0.0,-999.0,94,0.00,,,-99.99,,2013-07-28 06:32:00,
2013-07-27 23:42:00,60.0,58.0,29.91,North,0,0.0,-999.0,94,0.00,,,-99.99,,2013-07-28 06:42:00,
2013-07-27 23:52:00,60.0,58.0,29.91,North,0,0.0,-999.0,94,0.00,,,-99.99,,2013-07-28 06:52:00,